Regional Weather Roundup
Issued by NWS

Home | Current Version | Previous Version | Graphics & Text | Print | Product List | Glossary On
Versions: 1 2 3 4 5 6 7 8 9 10 11 12 13 14 15 16 17 18 19 20 21 22 23 24 25 26 27 28 29 30 31 32 33 34 35 36 37 38 39 40 41 42 43 44 45 46 47 48 49 50
069
ASUS43 KLMK 271810
RWRKY
KENTUCKY REGIONAL WEATHER ROUNDUP
NATIONAL WEATHER SERVICE LOUISVILLE KY
200 PM EDT MON MAR 27 2017

NOTE "FAIR" INDICATES FEW OR NO CLOUDS BELOW 12,000 FEET
WITH NO SIGNIFICANT WEATHER AND/OR OBSTRUCTIONS TO VISIBILITY.

KYZ001>023-026-027-061>063-070>075-271900-
WESTERN AND SOUTH CENTRAL KENTUCKY

CITY           SKY/WX    TMP DP  RH WIND       PRES   REMARKS
PADUCAH        LGT RAIN  60  56  86 W12       29.89S
HENDERSON      CLOUDY    70  57  64 S12       29.86F
OWENSBORO      PTSUNNY   67  60  78 S12       29.89F
HOPKINSVILLE   CLOUDY    74  61  63 S21       29.88F
BOWLING GREEN  CLOUDY    73  61  65 S12       29.92F
GLASGOW        PTSUNNY   72  58  63 SW9       29.93F
$$

KYZ024-025-028>034-038-045-046-053-271900-
NORTH CENTRAL KENTUCKY

CITY           SKY/WX    TMP DP  RH WIND       PRES   REMARKS
LOUISVILLE/SDF CLOUDY    66  57  72 SE8       29.91F
LOUISVILLE/LOU CLOUDY    66  56  70 SE5       29.92F
FORT KNOX      PTSUNNY   67  58  73 SE12      29.91F
$$

KYZ035>037-039>044-047>052-055>060-089>105-271900-
NORTHEAST KENTUCKY

CITY           SKY/WX    TMP DP  RH WIND       PRES   REMARKS
LEXINGTON      CLOUDY    67  57  70 VRB5      29.95F
COVINGTON      CLOUDY    62  52  69 SE3       29.95F
FRANKFORT      CLOUDY    65  55  70 CALM      29.93F
$$

KYZ054-064>069-076>088-106>120-271900-
SOUTHEAST KENTUCKY

CITY           SKY/WX    TMP DP  RH WIND       PRES   REMARKS
JACKSON        TSTM      60  58  92 SW7       30.00F FOG
LONDON         CLOUDY    65  57  75 N6        29.98F
SOMERSET       CLOUDY    66  55  68 W8        29.99F
MIDDLESBORO    PTSUNNY   73  59  62 S16       30.00F
MONTICELLO     CLOUDY    71  59  65 SW21      29.99F
$$





USA.gov is the U.S. government's official web portal to all federal, state and local government web resources and services.